sat.trackr.live / text

‹ back to catalog

LEMUR-2-AFFIE-WAUWIE

NORAD 66295 · 2025-248C

PAYLOAD ACTIVE UNKNOWN

§ Identity

Operator
Country
US
Launch date
2025-11-02
Launch site
AFETR
Launch vehicle
Mass (kg)
RCS (m²)

Purposes: earth_obs

External: N2YO · Heavens-Above · Gunter

§ Orbital elements

Epoch: 2026-09-20T04:40:13.971360Z

Period
94.09 min
Inclination
45.3924°
Eccentricity
0.0007712
Mean motion
15.30440669 rev/d
Perigee alt
469.2 km
Apogee alt
479.8 km
Semi-major
6,852.6 km
B*
4.7078e-4
RAAN
318.9456°
Arg perigee
285.3703°
Mean anomaly
74.6335°
Rev number
4,913

§ Raw data

LEMUR-2-AFFIE-WAUWIE1 66295U 25248C   26263.19460615  .00013847  00000+0  47078-3 0  99912 66295  45.3924 318.9456 0007712 285.3703  74.6335 15.30440669 49131

JSON: /api/v1/satellites/66295 · /tle

For live sub-satellite position, see the globe view (requires WebGL).

§ Visibility from observer

Set your observer location to see the next 7 days of passes ≥ 10°. The values pass through the URL so the page stays shareable.

No JS? Fill the form by hand. The geolocation button needs JavaScript.

§ Radio — SatNOGS DB

ModeDescriptionDownlinkUplink
FM Mode U - Transmitter 401.100 MHz

1 transmitter · refreshed weekly from db.satnogs.org